sat.trackr.live / text

‹ back to catalog

EINSTEIN PROBE

NORAD 58753 · 2024-007A

PAYLOAD ACTIVE UNKNOWN

§ Identity

Operator
Country
PRC
Launch date
2024-01-09
Launch site
XICLF
Launch vehicle
Mass (kg)
RCS (m²)

External: N2YO · Heavens-Above · Gunter

§ Orbital elements

Epoch: 2026-09-21T18:40:52.157280Z

Period
95.85 min
Inclination
28.9997°
Eccentricity
0.0009680
Mean motion
15.02272037 rev/d
Perigee alt
553.2 km
Apogee alt
566.6 km
Semi-major
6,938.0 km
B*
1.1730e-4
RAAN
305.0471°
Arg perigee
146.9768°
Mean anomaly
213.1437°
Rev number
14,810

§ Raw data

EINSTEIN PROBE1 58753U 24007A   26264.77838145  .00001740  00000+0  11730-3 0  99902 58753  28.9997 305.0471 0009680 146.9768 213.1437 15.02272037148102

JSON: /api/v1/satellites/58753 · /tle

For live sub-satellite position, see the globe view (requires WebGL).

§ Visibility from observer

Set your observer location to see the next 7 days of passes ≥ 10°. The values pass through the URL so the page stays shareable.

No JS? Fill the form by hand. The geolocation button needs JavaScript.